User: anonymous   Login
Location: Unspecified
(0.0000°N, 0.0000°E)
Time: 20:04:54
(UTC+00:00)
Language:

STARLINK-31068 - Orbit

View from above orbital plane
View from above orbital plane
View from above satellite
View from above satellite

Ground track
Ground track

The orbit is defined by the following mean orbital elements,

1 58623U          26145.27517782 +.00000000 +00000-0 +49002-4 0 00003
2 58623  43.0022 354.6249 0001095 275.9351  84.1376 15.27576861    04
Epoch (UTC): 25 May 2026 06:36:15
Eccentricity: 0.0001095
inclination: 43.0022°
perigee height: 482 km
apogee height: 484 km
right ascension of ascending node: 354.6249°
argument of perigee: 275.9351°
revolutions per day: 15.27576861
mean anomaly at epoch: 84.1376°

The dashed part of the orbit path shows where the satellite is in the earth's shadow,  

DLR